Terminal Aerodrome Forecast
Issued by NWS

Home | Current Version | Previous Version | Text Only | Print | Product List | Glossary On
Versions: 1 2 3 4 5 6 7 8 9 10 11 12 13 14 15 16 17 18 19 20 21 22 23 24 25 26 27 28
000
FTUS43 KPAH 261726
TAFCGI
TAF
KCGI 261726Z 2618/2718 VRB15G30KT 1SM +TSRA OVC015CB
      TEMPO 2619/2623 13010KT 3SM TSRA BKN025CB
     FM262300 16006KT P6SM BKN080
     FM271300 18009KT 4SM TSRA OVC025CB=

USA.gov is the U.S. government's official web portal to all federal, state and local government web resources and services.